When you browse on this site, cookies collect data to enhance your experience and personalize the content and advertising you see.
Visit our Privacy Policy to learn more. By continuing to use the site, you agree to this use of cookies and data.
  • Em Portugal
  • Lista de países
  • Para 7 dias
  • Temperatura da água
  • Mapa do tempo
  • Widgets de tempo
  • user-avatar
    Iniciar Sessão

    Previsão horária em Elbasan

    Hoje, 23 Setembro, Segunda-feira

    Tempo Temperatura Precipitação Vento Pressão Humidade
    00:00 +19°C° 0 mm 1 m/s 737 mmHg 72%
    01:00 +20°C° 0 mm 1 m/s 737 mmHg 69%
    02:00 +20°C° 0 mm 1 m/s 737 mmHg 69%
    03:00 +20°C° 0 mm 1 m/s 736 mmHg 68%
    04:00 +20°C° 0 mm 1 m/s 736 mmHg 68%
    05:00 +20°C° 0 mm 1 m/s 736 mmHg 64%
    06:00 +21°C° 0 mm 1 m/s 736 mmHg 60%
    07:00 +22°C° 0 mm 1 m/s 736 mmHg 59%
    08:00 +24°C° 0 mm 1 m/s 736 mmHg 55%
    09:00 +25°C° 0 mm 1 m/s 736 mmHg 50%
    10:00 +26°C° 0 mm 1 m/s 735 mmHg 46%
    11:00 +26°C° 0.5 mm 1 m/s 735 mmHg 52%
    12:00 +25°C° 0.5 mm 1 m/s 735 mmHg 59%
    13:00 +24°C° 0.5 mm 1 m/s 734 mmHg 66%
    14:00 +23°C° 1.2 mm 1 m/s 734 mmHg 69%
    15:00 +23°C° 1.2 mm 1 m/s 734 mmHg 72%
    16:00 +23°C° 1.2 mm 1 m/s 734 mmHg 75%
    17:00 +22°C° 1.5 mm 1 m/s 734 mmHg 80%
    18:00 +22°C° 1.5 mm 1 m/s 734 mmHg 84%
    19:00 +21°C° 1.5 mm 1 m/s 734 mmHg 88%
    20:00 +21°C° 1.7 mm 1 m/s 733 mmHg 88%
    21:00 +21°C° 1.7 mm 1 m/s 733 mmHg 88%
    22:00 +21°C° 1.7 mm 1 m/s 733 mmHg 88%
    23:00 +21°C° 1.2 mm 1 m/s 733 mmHg 89%

    Amanhã, 24 Setembro, Terça-feira

    Tempo Temperatura Precipitação Vento Pressão Humidade
    00:00 +21°C° 1.2 mm 1 m/s 733 mmHg 89%
    01:00 +21°C° 1.2 mm 1 m/s 732 mmHg 89%
    02:00 +21°C° 1.1 mm 1 m/s 732 mmHg 90%
    03:00 +20°C° 1.1 mm 1 m/s 731 mmHg 90%
    04:00 +20°C° 1.1 mm 1 m/s 731 mmHg 91%
    05:00 +21°C° 1 mm 1 m/s 731 mmHg 89%
    06:00 +21°C° 1 mm 1 m/s 731 mmHg 87%
    07:00 +22°C° 1 mm 1 m/s 731 mmHg 86%
    08:00 +23°C° 1.4 mm 1 m/s 731 mmHg 81%
    09:00 +23°C° 1.4 mm 2 m/s 731 mmHg 76%
    10:00 +24°C° 1.4 mm 2 m/s 731 mmHg 70%
    11:00 +24°C° 0.9 mm 3 m/s 731 mmHg 69%
    12:00 +24°C° 0.9 mm 3 m/s 731 mmHg 68%
    13:00 +24°C° 0.9 mm 3 m/s 731 mmHg 67%
    14:00 +24°C° 0.1 mm 3 m/s 731 mmHg 66%
    15:00 +24°C° 0.1 mm 3 m/s 730 mmHg 65%
    16:00 +22°C° 0.1 mm 3 m/s 730 mmHg 65%
    17:00 +21°C° 0 mm 2 m/s 731 mmHg 72%
    18:00 +20°C° 0 mm 1 m/s 731 mmHg 79%
    19:00 +17°C° 0 mm 0 m/s 731 mmHg 86%
    20:00 +17°C° 0 mm 0 m/s 731 mmHg 86%
    21:00 +18°C° 0 mm 1 m/s 731 mmHg 86%
    22:00 +18°C° 0 mm 1 m/s 732 mmHg 86%
    23:00 +18°C° 0 mm 1 m/s 732 mmHg 85%

    Depois de amanhã, 25 Setembro, Quarta-feira

    Tempo Temperatura Precipitação Vento Pressão Humidade
    00:00 +16°C° 0 mm 0 m/s 732 mmHg 85%
    01:00 +15°C° 0 mm 0 m/s 731 mmHg 84%
    02:00 +15°C° 0 mm 0 m/s 731 mmHg 84%
    03:00 +16°C° 0 mm 1 m/s 731 mmHg 84%
    04:00 +16°C° 0 mm 1 m/s 731 mmHg 84%
    05:00 +18°C° 0 mm 1 m/s 732 mmHg 80%
    06:00 +18°C° 0 mm 1 m/s 732 mmHg 77%
    07:00 +19°C° 0 mm 1 m/s 732 mmHg 73%
    08:00 +21°C° 0 mm 1 m/s 732 mmHg 66%
    09:00 +23°C° 0 mm 1 m/s 733 mmHg 60%
    10:00 +24°C° 0 mm 1 m/s 733 mmHg 53%
    11:00 +25°C° 0 mm 2 m/s 733 mmHg 52%
    12:00 +25°C° 0 mm 2 m/s 732 mmHg 50%
    13:00 +26°C° 0 mm 3 m/s 732 mmHg 49%
    14:00 +25°C° 0 mm 3 m/s 732 mmHg 53%
    15:00 +25°C° 0 mm 2 m/s 732 mmHg 58%
    16:00 +24°C° 0 mm 2 m/s 732 mmHg 62%
    17:00 +23°C° 0 mm 2 m/s 732 mmHg 70%
    18:00 +21°C° 0 mm 1 m/s 732 mmHg 77%
    19:00 +18°C° 0 mm 0 m/s 733 mmHg 84%
    20:00 +17°C° 0 mm 0 m/s 733 mmHg 84%
    21:00 +19°C° 0 mm 1 m/s 733 mmHg 84%
    22:00 +19°C° 0 mm 1 m/s 733 mmHg 83%
    23:00 +19°C° 0 mm 1 m/s 733 mmHg 82%

    26 Setembro, Quinta-feira

    Tempo Temperatura Precipitação Vento Pressão Humidade
    00:00 +19°C° 0 mm 1 m/s 733 mmHg 82%
    01:00 +19°C° 0 mm 1 m/s 733 mmHg 81%
    02:00 +18°C° 0 mm 1 m/s 733 mmHg 80%
    03:00 +18°C° 0 mm 1 m/s 733 mmHg 78%
    04:00 +18°C° 0 mm 1 m/s 733 mmHg 77%
    05:00 +19°C° 0 mm 1 m/s 733 mmHg 74%
    06:00 +20°C° 0 mm 1 m/s 733 mmHg 71%
    07:00 +21°C° 0 mm 1 m/s 733 mmHg 68%
    08:00 +22°C° 0 mm 1 m/s 733 mmHg 64%
    09:00 +24°C° 0 mm 1 m/s 733 mmHg 60%
    10:00 +25°C° 0 mm 2 m/s 734 mmHg 56%
    11:00 +25°C° 0.4 mm 2 m/s 734 mmHg 58%
    12:00 +25°C° 0.4 mm 3 m/s 733 mmHg 61%
    13:00 +25°C° 0.4 mm 4 m/s 733 mmHg 63%
    14:00 +25°C° 0.5 mm 4 m/s 733 mmHg 65%
    15:00 +24°C° 0.5 mm 3 m/s 733 mmHg 66%
    16:00 +24°C° 0.5 mm 2 m/s 733 mmHg 68%
    17:00 +21°C° 0.1 mm 2 m/s 733 mmHg 74%
    18:00 +21°C° 0.1 mm 1 m/s 734 mmHg 79%
    19:00 +18°C° 0.1 mm 0 m/s 734 mmHg 85%
    20:00 +18°C° 0 mm 0 m/s 734 mmHg 86%
    21:00 +19°C° 0 mm 1 m/s 734 mmHg 86%
    22:00 +19°C° 0 mm 1 m/s 735 mmHg 86%
    23:00 +19°C° 0 mm 1 m/s 735 mmHg 87%

    27 Setembro, Sexta-feira

    Tempo Temperatura Precipitação Vento Pressão Humidade
    00:00 +19°C° 0 mm 1 m/s 735 mmHg 87%
    01:00 +18°C° 0 mm 1 m/s 735 mmHg 87%
    02:00 +18°C° 0 mm 1 m/s 735 mmHg 87%
    03:00 +18°C° 0 mm 1 m/s 735 mmHg 87%
    04:00 +18°C° 0 mm 1 m/s 735 mmHg 87%
    05:00 +18°C° 0 mm 1 m/s 735 mmHg 85%
    06:00 +19°C° 0 mm 1 m/s 735 mmHg 83%
    07:00 +20°C° 0 mm 1 m/s 735 mmHg 81%
    08:00 +21°C° 0 mm 1 m/s 736 mmHg 74%
    09:00 +23°C° 0 mm 1 m/s 736 mmHg 67%
    10:00 +24°C° 0 mm 1 m/s 736 mmHg 59%
    11:00 +25°C° 0 mm 1 m/s 736 mmHg 55%
    12:00 +26°C° 0 mm 2 m/s 736 mmHg 51%
    13:00 +27°C° 0 mm 2 m/s 736 mmHg 47%
    14:00 +26°C° 0 mm 2 m/s 736 mmHg 48%
    15:00 +26°C° 0 mm 2 m/s 735 mmHg 48%
    16:00 +26°C° 0 mm 2 m/s 735 mmHg 49%
    17:00 +24°C° 0 mm 2 m/s 736 mmHg 54%
    18:00 +21°C° 0 mm 2 m/s 736 mmHg 58%
    19:00 +20°C° 0 mm 1 m/s 736 mmHg 63%
    20:00 +20°C° 0 mm 1 m/s 736 mmHg 63%
    21:00 +19°C° 0 mm 2 m/s 737 mmHg 62%
    22:00 +18°C° 0 mm 2 m/s 737 mmHg 62%
    23:00 +18°C° 0 mm 2 m/s 737 mmHg 62%

    28 Setembro, Sábado

    Tempo Temperatura Precipitação Vento Pressão Humidade
    00:00 +18°C° 0 mm 2 m/s 737 mmHg 63%
    01:00 +17°C° 0 mm 2 m/s 737 mmHg 63%
    02:00 +17°C° 0 mm 2 m/s 737 mmHg 63%
    03:00 +17°C° 0 mm 2 m/s 737 mmHg 64%
    04:00 +17°C° 0 mm 2 m/s 737 mmHg 64%
    05:00 +17°C° 0 mm 2 m/s 737 mmHg 63%
    06:00 +18°C° 0 mm 2 m/s 737 mmHg 62%
    07:00 +19°C° 0 mm 2 m/s 737 mmHg 60%
    08:00 +22°C° 0 mm 1 m/s 738 mmHg 54%
    09:00 +25°C° 0 mm 1 m/s 738 mmHg 48%
    10:00 +27°C° 0 mm 1 m/s 738 mmHg 42%
    11:00 +27°C° 0 mm 1 m/s 738 mmHg 42%
    12:00 +28°C° 0 mm 2 m/s 738 mmHg 42%
    13:00 +28°C° 0 mm 3 m/s 737 mmHg 42%
    14:00 +28°C° 0 mm 3 m/s 737 mmHg 46%
    15:00 +27°C° 0 mm 3 m/s 737 mmHg 50%
    16:00 +26°C° 0 mm 2 m/s 736 mmHg 54%
    17:00 +24°C° 0 mm 2 m/s 737 mmHg 61%
    18:00 +23°C° 0 mm 1 m/s 737 mmHg 68%
    19:00 +19°C° 0 mm 0 m/s 737 mmHg 75%
    20:00 +19°C° 0 mm 0 m/s 737 mmHg 76%
    21:00 +19°C° 0 mm 0 m/s 737 mmHg 77%
    22:00 +20°C° 0 mm 1 m/s 737 mmHg 78%
    23:00 +20°C° 0 mm 1 m/s 737 mmHg 77%
    Mostrar mais